SIK655 LFKJ-LFPO

Flight info

Callsign SIK655
Flight time N/A
Altitude 28000
Route TORTU/N449F340 DCT ERTEV DCT ENOBA DCT ASTIG DCT AOSTA DCT ORSUD DCT MOLUS DCT UNKIR DCT DJL
Aircraft B738/M-SDE2E3FGHIRWXY/LB1

Departure

Time 2026-04-28 18:47
Airport Ajaccio Napoléon Bonaparte airport (LFKJ)

Arrival

Time N/A
Airport Paris-Orly Airport (LFPO)
Time Latitude Longitude Altitude Speed Heading
2026-04-28 18:27 41.92081 8.79637 17 ft 0 kts 315°
2026-04-28 18:28 41.91812 8.79470 24 ft 0 kts 338°
2026-04-28 18:40 41.91800 8.79477 24 ft 3 kts 338°
2026-04-28 18:41 41.91781 8.79487 29 ft 3 kts 338°
2026-04-28 18:41 41.91762 8.79498 25 ft 3 kts 338°
2026-04-28 18:41 41.91742 8.79504 29 ft 3 kts 26°
2026-04-28 18:41 41.91731 8.79496 28 ft 0 kts 25°
2026-04-28 18:42 41.91754 8.79512 27 ft 9 kts 26°
2026-04-28 18:43 41.91822 8.79557 24 ft 12 kts 26°
2026-04-28 18:43 41.91907 8.79608 24 ft 14 kts 25°
2026-04-28 18:43 41.91998 8.79666 24 ft 15 kts 25°
2026-04-28 18:43 41.92094 8.79726 28 ft 16 kts 24°
2026-04-28 18:44 41.92208 8.79796 28 ft 19 kts 25°
2026-04-28 18:44 41.92440 8.79941 28 ft 18 kts 26°
2026-04-28 18:44 41.92551 8.80010 25 ft 17 kts 24°
2026-04-28 18:45 41.92657 8.80076 27 ft 17 kts 25°
2026-04-28 18:45 41.92758 8.80146 28 ft 16 kts 32°
2026-04-28 18:45 41.92841 8.80240 26 ft 15 kts 44°
2026-04-28 18:45 41.92914 8.80340 27 ft 15 kts 46°
2026-04-28 18:46 41.92965 8.80453 27 ft 14 kts 82°
2026-04-28 18:46 41.92941 8.80573 28 ft 6 kts 117°
2026-04-28 18:46 41.92904 8.80566 28 ft 6 kts 228°
2026-04-28 18:46 41.92820 8.80510 27 ft 37 kts 205°
2026-04-28 18:47 41.92350 8.80219 25 ft 110 kts 205°
2026-04-28 18:47 41.91468 8.79667 44 ft 166 kts 204°
2026-04-28 18:47 41.90419 8.78994 737 ft 166 kts 210°
2026-04-28 18:47 41.89694 8.77821 1493 ft 170 kts 249°
2026-04-28 18:48 41.89260 8.76306 2049 ft 183 kts 245°
2026-04-28 18:48 41.88672 8.74689 2536 ft 202 kts 245°
2026-04-28 18:48 41.88003 8.72903 2814 ft 224 kts 242°
2026-04-28 18:48 41.87348 8.70988 3336 ft 233 kts 258°
2026-04-28 18:49 41.87443 8.68838 4084 ft 235 kts 290°
2026-04-28 18:49 41.87993 8.67558 4617 ft 237 kts 311°
2026-04-28 18:49 41.89881 8.66141 5555 ft 243 kts 352°
2026-04-28 18:49 41.91575 8.66168 6302 ft 246 kts
2026-04-28 18:50 41.93312 8.66418 6818 ft 260 kts
2026-04-28 18:50 41.95190 8.66713 7173 ft 279 kts
2026-04-28 18:50 41.97145 8.67024 7851 ft 285 kts
2026-04-28 18:50 41.99119 8.67337 8644 ft 286 kts
2026-04-28 18:51 42.01104 8.67656 9449 ft 288 kts 10°
2026-04-28 18:51 42.03064 8.68296 10170 ft 291 kts 19°
2026-04-28 18:51 42.05008 8.69243 10454 ft 311 kts 23°
2026-04-28 18:51 42.07069 8.70445 10632 ft 334 kts 25°
2026-04-28 18:52 42.09216 8.71822 10982 ft 348 kts 27°
2026-04-28 18:52 42.11403 8.73292 11587 ft 353 kts 27°
2026-04-28 18:52 42.13595 8.74800 12314 ft 355 kts 27°
2026-04-28 18:52 42.15809 8.76340 13009 ft 360 kts 27°
2026-04-28 18:53 42.18041 8.77897 13695 ft 364 kts 27°
2026-04-28 18:53 42.20306 8.79478 14342 ft 368 kts 27°
2026-04-28 18:53 42.22593 8.81076 15036 ft 371 kts 27°
2026-04-28 18:53 42.24922 8.82601 15719 ft 374 kts 19°
2026-04-28 18:54 42.27480 8.83259 16408 ft 375 kts
2026-04-28 18:54 42.30095 8.83552 17089 ft 379 kts
2026-04-28 18:54 42.32742 8.83813 17729 ft 384 kts
2026-04-28 18:54 42.35423 8.84077 18389 ft 387 kts
2026-04-28 18:55 42.38084 8.84345 18967 ft 390 kts
2026-04-28 18:55 42.39920 8.84537 19351 ft 393 kts
2026-04-28 18:55 42.43551 8.84927 20097 ft 397 kts
2026-04-28 18:55 42.46319 8.85232 20667 ft 400 kts
2026-04-28 18:56 42.49113 8.85545 21225 ft 404 kts
2026-04-28 18:56 42.51927 8.85861 21771 ft 407 kts
2026-04-28 18:56 42.54765 8.86182 22298 ft 411 kts
2026-04-28 18:56 42.57625 8.86506 22834 ft 414 kts
2026-04-28 18:57 42.60511 8.86832 23356 ft 417 kts
2026-04-28 18:57 42.63415 8.87162 23817 ft 420 kts
2026-04-28 18:57 42.66332 8.87493 24281 ft 421 kts
2026-04-28 18:57 42.69260 8.87825 24762 ft 422 kts
2026-04-28 18:58 42.72197 8.88159 25211 ft 424 kts
2026-04-28 18:58 42.75108 8.88490 25637 ft 426 kts
2026-04-28 18:58 42.78072 8.88827 26061 ft 428 kts
2026-04-28 18:58 42.81045 8.89166 26482 ft 430 kts
2026-04-28 18:59 42.84034 8.89507 26895 ft 431 kts
2026-04-28 18:59 42.87041 8.89850 27303 ft 433 kts
2026-04-28 18:59 42.90055 8.90194 27701 ft 435 kts
2026-04-28 18:59 42.93081 8.90541 28020 ft 438 kts
2026-04-28 19:00 42.96144 8.90891 27998 ft 442 kts
2026-04-28 19:00 42.99168 8.91238 28004 ft 441 kts
2026-04-28 19:00 43.02213 8.91587 27997 ft 436 kts
2026-04-28 19:00 43.05232 8.91933 28003 ft 435 kts
2026-04-28 19:01 43.11318 8.92632 28444 ft 441 kts
2026-04-28 19:01 43.14371 8.92983 28909 ft 440 kts
2026-04-28 19:01 43.17427 8.93335 29290 ft 442 kts
2026-04-28 19:02 43.20498 8.93689 29613 ft 444 kts
2026-04-28 19:02 43.23582 8.94045 30032 ft 444 kts
2026-04-28 19:02 43.26651 8.94398 30486 ft 441 kts
2026-04-28 19:02 43.29710 8.94751 30945 ft 438 kts
2026-04-28 19:03 43.32755 8.95103 31238 ft 440 kts
2026-04-28 19:03 43.35792 8.95454 31327 ft 447 kts
2026-04-28 19:03 43.38889 8.95344 31616 ft 445 kts 349°
2026-04-28 19:03 43.41828 8.94080 32096 ft 439 kts 336°
2026-04-28 19:04 43.44590 8.92344 32638 ft 434 kts 334°
2026-04-28 19:04 43.47319 8.90553 33007 ft 434 kts 334°
2026-04-28 19:04 43.50041 8.88745 33307 ft 434 kts 334°
2026-04-28 19:04 43.52763 8.86943 33623 ft 434 kts 334°
2026-04-28 19:05 43.55486 8.85154 33997 ft 432 kts 334°
2026-04-28 19:05 43.58220 8.83371 34017 ft 437 kts 334°
2026-04-28 19:05 43.63729 8.79802 34031 ft 436 kts 334°
2026-04-28 19:06 43.68266 8.76873 34033 ft 430 kts 334°
2026-04-28 19:06 43.74576 8.72791 34047 ft 430 kts 334°
2026-04-28 19:07 43.79979 8.69287 34045 ft 431 kts 334°
2026-04-28 19:07 43.85413 8.65756 34041 ft 431 kts 334°
2026-04-28 19:08 43.90863 8.62207 34039 ft 432 kts 334°
2026-04-28 19:08 43.96306 8.58655 34038 ft 433 kts 334°
2026-04-28 19:09 44.01761 8.55088 34039 ft 433 kts 333°
2026-04-28 19:09 44.07209 8.51518 34036 ft 433 kts 333°
2026-04-28 19:10 44.12629 8.47959 34031 ft 434 kts 333°
2026-04-28 19:10 44.18088 8.44368 34033 ft 434 kts 333°
2026-04-28 19:11 44.23547 8.40769 34039 ft 434 kts 333°
2026-04-28 19:11 44.28998 8.37169 34044 ft 433 kts 333°
2026-04-28 19:12 44.34460 8.33553 34040 ft 433 kts 333°
2026-04-28 19:12 44.39901 8.29943 34046 ft 433 kts 333°
2026-04-28 19:13 44.45342 8.26327 34034 ft 432 kts 333°
2026-04-28 19:13 44.50772 8.22709 34039 ft 432 kts 333°
2026-04-28 19:14 44.56161 8.19113 34037 ft 431 kts 332°
2026-04-28 19:14 44.61565 8.15497 34031 ft 430 kts 333°
2026-04-28 19:15 44.66965 8.11878 34030 ft 429 kts 333°
2026-04-28 19:15 44.71440 8.08873 34025 ft 429 kts 333°
2026-04-28 19:16 44.77740 8.04633 34019 ft 428 kts 333°
2026-04-28 19:16 44.83110 8.01011 34033 ft 428 kts 333°
2026-04-28 19:17 44.88483 7.97380 34027 ft 428 kts 333°
2026-04-28 19:17 44.93857 7.93740 34028 ft 428 kts 332°
2026-04-28 19:18 44.99195 7.90118 34035 ft 428 kts 332°
2026-04-28 19:18 45.04561 7.86468 34044 ft 428 kts 332°
2026-04-28 19:19 45.09936 7.82805 34048 ft 429 kts 332°
2026-04-28 19:19 45.15310 7.79134 34046 ft 429 kts 332°
2026-04-28 19:20 45.20688 7.75454 34052 ft 429 kts 332°
2026-04-28 19:20 45.26060 7.71769 34051 ft 428 kts 332°
2026-04-28 19:21 45.31426 7.68081 34050 ft 428 kts 332°
2026-04-28 19:21 45.36753 7.64412 34055 ft 428 kts 331°
2026-04-28 19:22 45.40337 7.61939 34050 ft 428 kts 331°
2026-04-28 19:22 45.47463 7.57010 34064 ft 427 kts 331°
2026-04-28 19:23 45.52788 7.53320 34035 ft 426 kts 331°
2026-04-28 19:23 45.58101 7.49629 34064 ft 424 kts 331°
2026-04-28 19:24 45.62512 7.46557 34056 ft 425 kts 331°
2026-04-28 19:24 45.67840 7.42839 34037 ft 425 kts 331°
2026-04-28 19:25 45.73162 7.39117 34047 ft 426 kts 330°
2026-04-28 19:25 45.78488 7.35386 34063 ft 426 kts 330°
2026-04-28 19:26 45.83462 7.30832 34059 ft 424 kts 321°
2026-04-28 19:26 45.88257 7.25883 34054 ft 425 kts 321°
2026-04-28 19:27 45.93083 7.20963 34067 ft 426 kts 321°
2026-04-28 19:27 45.97879 7.16092 34084 ft 423 kts 321°
2026-04-28 19:28 46.02672 7.11182 34062 ft 422 kts 321°
2026-04-28 19:28 46.07436 7.06281 34082 ft 421 kts 321°
2026-04-28 19:29 46.11390 7.02207 34099 ft 419 kts 320°
2026-04-28 19:29 46.16930 6.96488 34068 ft 419 kts 320°
2026-04-28 19:30 46.21651 6.91602 34088 ft 418 kts 320°
2026-04-28 19:30 46.26398 6.86677 34083 ft 420 kts 320°
2026-04-28 19:31 46.31137 6.81751 34082 ft 422 kts 320°
2026-04-28 19:31 46.35916 6.76771 34072 ft 424 kts 320°
2026-04-28 19:32 46.40697 6.71782 34080 ft 424 kts 320°
2026-04-28 19:32 46.44957 6.66036 34078 ft 415 kts 306°
2026-04-28 19:33 46.48021 6.59023 34080 ft 410 kts 297°
2026-04-28 19:33 46.50831 6.51804 34079 ft 410 kts 297°
2026-04-28 19:34 46.53621 6.44658 34081 ft 409 kts 297°
2026-04-28 19:34 46.56440 6.37476 34086 ft 409 kts 297°
2026-04-28 19:35 46.59256 6.30303 34083 ft 408 kts 297°
2026-04-28 19:35 46.62068 6.23126 34075 ft 409 kts 296°
2026-04-28 19:36 46.64875 6.15939 34084 ft 408 kts 296°
2026-04-28 19:36 46.67679 6.08743 34076 ft 409 kts 296°
2026-04-28 19:37 46.70006 6.02753 34074 ft 409 kts 296°
2026-04-28 19:37 46.73276 5.94313 34060 ft 409 kts 296°
2026-04-28 19:38 46.76056 5.87116 34045 ft 409 kts 296°
2026-04-28 19:38 46.78847 5.79877 34058 ft 409 kts 296°
2026-04-28 19:39 46.81824 5.72757 34054 ft 414 kts 303°
2026-04-28 19:39 46.85883 5.66662 34045 ft 422 kts 311°
2026-04-28 19:40 46.90194 5.60856 34044 ft 422 kts 311°
2026-04-28 19:40 46.94499 5.55004 34047 ft 422 kts 311°
2026-04-28 19:41 46.98782 5.49116 34046 ft 422 kts 311°
2026-04-28 19:41 47.03032 5.43240 34047 ft 422 kts 310°
2026-04-28 19:42 47.07301 5.37324 34054 ft 422 kts 310°
2026-04-28 19:42 47.10863 5.32379 34050 ft 423 kts 310°
2026-04-28 19:43 47.15853 5.25434 34045 ft 423 kts 310°
2026-04-28 19:43 47.20119 5.19481 34059 ft 423 kts 310°
2026-04-28 19:44 47.24387 5.13511 34049 ft 424 kts 310°
2026-04-28 19:44 47.26530 5.10509 33725 ft 428 kts 310°
2026-04-28 19:44 47.28662 5.07444 33132 ft 426 kts 309°
2026-04-28 19:45 47.30697 5.04350 32478 ft 425 kts 308°
2026-04-28 19:45 47.32721 5.01197 31805 ft 424 kts 307°
2026-04-28 19:45 47.34752 4.98017 31103 ft 425 kts 308°
2026-04-28 19:45 47.36787 4.94841 30422 ft 426 kts 308°
2026-04-28 19:46 47.38820 4.91686 29892 ft 422 kts 308°
2026-04-28 19:46 47.40837 4.88565 29312 ft 418 kts 308°
2026-04-28 19:46 47.42833 4.85477 28781 ft 413 kts 308°
2026-04-28 19:46 47.44808 4.82416 28252 ft 409 kts 308°
2026-04-28 19:47 47.46764 4.79383 27736 ft 405 kts 308°
2026-04-28 19:47 47.48701 4.76377 27204 ft 402 kts 308°
2026-04-28 19:47 47.50596 4.73432 26808 ft 397 kts 308°
2026-04-28 19:47 47.52484 4.70503 26501 ft 393 kts 308°
2026-04-28 19:48 47.54395 4.67525 26202 ft 405 kts 308°
2026-04-28 19:48 47.56355 4.64464 25871 ft 413 kts 308°
2026-04-28 19:48 47.58336 4.61371 25524 ft 413 kts 308°
2026-04-28 19:48 47.60308 4.58297 25182 ft 410 kts 308°
2026-04-28 19:49 47.62270 4.55236 24852 ft 408 kts 308°
2026-04-28 19:49 47.64219 4.52189 24518 ft 406 kts 308°
2026-04-28 19:49 47.66158 4.49150 24190 ft 405 kts 308°
2026-04-28 19:49 47.68090 4.46118 23865 ft 404 kts 308°
2026-04-28 19:50 47.71943 4.40058 23135 ft 403 kts 308°
2026-04-28 19:50 47.73840 4.37067 22784 ft 402 kts 308°
2026-04-28 19:50 47.75754 4.34049 22446 ft 400 kts 309°
2026-04-28 19:51 47.77659 4.31041 22118 ft 399 kts 309°
2026-04-28 19:51 47.79558 4.28038 21780 ft 397 kts 309°
2026-04-28 19:51 47.81450 4.25042 21456 ft 396 kts 309°
2026-04-28 19:51 47.83330 4.22063 21139 ft 395 kts 309°
2026-04-28 19:52 47.85209 4.19085 20817 ft 394 kts 310°
2026-04-28 19:52 47.87076 4.16100 20497 ft 392 kts 308°
2026-04-28 19:52 47.88507 4.12699 20150 ft 385 kts 289°
2026-04-28 19:52 47.89227 4.08894 19884 ft 380 kts 281°
2026-04-28 19:53 47.89774 4.05094 19567 ft 379 kts 280°
2026-04-28 19:53 47.90300 4.01240 19258 ft 379 kts 280°
2026-04-28 19:53 47.90826 3.97389 18952 ft 379 kts 280°
2026-04-28 19:53 47.91364 3.93531 18644 ft 380 kts 281°
2026-04-28 19:54 47.91910 3.89673 18332 ft 381 kts 281°
2026-04-28 19:54 47.92464 3.85805 17980 ft 381 kts 281°
2026-04-28 19:54 47.93020 3.81940 17647 ft 381 kts 281°
2026-04-28 19:54 47.93574 3.78081 17319 ft 379 kts 281°
2026-04-28 19:55 47.94125 3.74241 17001 ft 377 kts 281°
2026-04-28 19:55 47.94663 3.70477 16697 ft 375 kts 281°
2026-04-28 19:55 47.95211 3.66638 16387 ft 373 kts 281°
2026-04-28 19:55 47.95742 3.62913 16091 ft 370 kts 281°
2026-04-28 19:56 47.96286 3.59170 15783 ft 366 kts 284°
2026-04-28 19:56 47.97320 3.55741 15464 ft 360 kts 305°
2026-04-28 19:56 47.98955 3.52955 15204 ft 353 kts 314°
2026-04-28 19:56 48.00672 3.50367 14909 ft 348 kts 315°
2026-04-28 19:57 48.02387 3.47826 14638 ft 346 kts 315°
2026-04-28 19:57 48.04067 3.45325 14361 ft 345 kts 315°
2026-04-28 19:57 48.05751 3.42794 14084 ft 343 kts 315°
2026-04-28 19:57 48.07432 3.40245 13803 ft 344 kts 315°
2026-04-28 19:58 48.09123 3.37668 13492 ft 347 kts 315°
2026-04-28 19:58 48.10807 3.35091 13184 ft 346 kts 315°
2026-04-28 19:58 48.12487 3.32513 12892 ft 344 kts 315°
2026-04-28 19:58 48.14149 3.29959 12609 ft 342 kts 315°
2026-04-28 19:59 48.15802 3.27416 12342 ft 339 kts 315°
2026-04-28 19:59 48.17441 3.24894 12078 ft 334 kts 315°
2026-04-28 19:59 48.19049 3.22419 11824 ft 328 kts 315°
2026-04-28 19:59 48.20606 3.20020 11565 ft 322 kts 315°
2026-04-28 20:00 48.22156 3.17634 11312 ft 317 kts 315°
2026-04-28 20:00 48.23683 3.15282 11060 ft 312 kts 315°
2026-04-28 20:00 48.25187 3.12967 10809 ft 308 kts 315°
2026-04-28 20:00 48.26670 3.10679 10565 ft 303 kts 315°
2026-04-28 20:01 48.28133 3.08422 10320 ft 299 kts 315°
2026-04-28 20:01 48.29577 3.06192 10072 ft 297 kts 315°
2026-04-28 20:01 48.31012 3.03973 9829 ft 295 kts 315°
2026-04-28 20:01 48.32435 3.01771 9555 ft 292 kts 315°
2026-04-28 20:02 48.33840 2.99596 9292 ft 289 kts 315°
2026-04-28 20:02 48.35235 2.97433 9036 ft 286 kts 315°
2026-04-28 20:02 48.36617 2.95287 8773 ft 284 kts 315°
2026-04-28 20:02 48.37987 2.93159 8508 ft 283 kts 315°
2026-04-28 20:03 48.39350 2.91039 8257 ft 282 kts 315°
2026-04-28 20:03 48.40712 2.88921 8002 ft 281 kts 316°
2026-04-28 20:03 48.42070 2.86808 7754 ft 280 kts 316°
2026-04-28 20:03 48.43403 2.84731 7506 ft 280 kts 316°
2026-04-28 20:04 48.44745 2.82596 7262 ft 280 kts 310°
2026-04-28 20:04 48.45600 2.79971 7001 ft 281 kts 282°
2026-04-28 20:04 48.45771 2.77047 6789 ft 279 kts 271°
2026-04-28 20:04 48.45829 2.74121 6546 ft 280 kts 271°
2026-04-28 20:05 48.45895 2.71161 6303 ft 284 kts 271°
2026-04-28 20:05 48.45971 2.68178 6050 ft 284 kts 271°
2026-04-28 20:05 48.46051 2.65256 5796 ft 282 kts 271°
2026-04-28 20:05 48.46143 2.62314 5535 ft 279 kts 272°
2026-04-28 20:06 48.46255 2.59407 5282 ft 277 kts 273°
2026-04-28 20:06 48.46372 2.56512 5030 ft 275 kts 273°
2026-04-28 20:06 48.46487 2.53648 4782 ft 273 kts 273°
2026-04-28 20:06 48.46600 2.50795 4508 ft 272 kts 273°
2026-04-28 20:07 48.46792 2.47950 4172 ft 274 kts 286°
2026-04-28 20:07 48.47250 2.46189 3993 ft 272 kts 297°
2026-04-28 20:07 48.48400 2.42818 3667 ft 269 kts 300°
2026-04-28 20:07 48.49266 2.40347 3545 ft 262 kts 300°
2026-04-28 20:08 48.50242 2.38154 3444 ft 250 kts 319°
2026-04-28 20:08 48.51532 2.36460 3281 ft 244 kts 324°
2026-04-28 20:08 48.52841 2.34855 3099 ft 242 kts 324°